This is the latest recevied weather packets stored in our database for station/object IW9CSJ-13. If no packets are shown the sender has not sent any weather packets the latest 10 day(s).
| Time | Temp. | Humidity | Pressure | Rain* | Wind** | Luminosity | Snow |
|---|---|---|---|---|---|---|---|
| 1777890621 | 20° C | 45% | 1018.4 hPa | 0 mm | - | - | - |
| 1777890320 | 19.44° C | 47% | 1018.4 hPa | 0 mm | - | - | - |
| 1777889421 | 19.44° C | 51% | 1018.6 hPa | 0 mm | - | - | - |
| 1777889120 | 19.44° C | 52% | 1018.7 hPa | 0 mm | - | - | - |
| 1777888820 | 19.44° C | 53% | 1018.7 hPa | 0 mm | - | - | - |
| 1777888520 | 19.44° C | 54% | 1018.7 hPa | 0 mm | - | - | - |
| 1777888220 | 20° C | 54% | 1018.6 hPa | 0 mm | - | - | - |
| 1777887620 | 20° C | 56% | 1018.7 hPa | 0 mm | - | - | - |
| 1777887319 | 20° C | 56% | 1018.8 hPa | 0 mm | - | - | - |
| 1777887020 | 20° C | 55% | 1018.7 hPa | 0 mm | - | - | - |
| 1777886719 | 20° C | 55% | 1018.7 hPa | 0 mm | - | - | - |
| 1777886419 | 20° C | 53% | 1018.6 hPa | 0 mm | - | - | - |
| 1777886119 | 20° C | 54% | 1018.7 hPa | 0 mm | - | - | - |
| 1777885820 | 20° C | 54% | 1018.7 hPa | 0 mm | - | - | - |
| 1777885524 | 19.44° C | 58% | 1018.8 hPa | 0 mm | - | - | - |
| 1777885220 | 19.44° C | 58% | 1018.7 hPa | 0 mm | - | - | - |
| 1777884921 | 18.89° C | 59% | 1018.8 hPa | 0 mm | - | - | - |
| 1777884620 | 19.44° C | 59% | 1018.7 hPa | 0 mm | - | - | - |
| 1777884019 | 18.89° C | 56% | 1018.9 hPa | 0 mm | - | - | - |
| 1777883722 | 18.89° C | 55% | 1018.9 hPa | 0 mm | - | - | - |
| 1777883422 | 18.89° C | 53% | 1019 hPa | 0 mm | - | - | - |
| 1777883122 | 18.89° C | 50% | 1018.9 hPa | 0 mm | - | - | - |
| 1777882221 | 18.89° C | 49% | 1018.7 hPa | 0 mm | - | - | - |
| 1777881921 | 18.89° C | 49% | 1018.7 hPa | 0 mm | - | - | - |
| 1777881021 | 19.44° C | 50% | 1018.6 hPa | 0 mm | - | - | - |
* Rain latest hour (hover to see other rain measurements)
** Current wind speed in m/s (hover to see current wind gust speed)